This demonstration page uses our WeatherBlox Daily Observations layout. Learn more.

Left ArrowRight Arrow

30.21309, -93.2044

Hourly Observations for January 9, 2022

Temp ( °F °C ) Dew Point ( °F °C ) Humidity (%) Winds ( mph kmh ) Pressure ( in mb ) Visibility ( mi km ) Precip ( " mm )
12:15 am 00:15 Mostly Cloudy 65 18.6 63 17.4 93 93 SE 10 17 30.11 1020 10 16 0.00 0.00
12:35 am 00:35 Mostly Cloudy 67 19.2 64 17.8 92 92 SE 10 17 30.11 1020 10 16 0.00 0.00
12:55 am 00:55 Cloudy 67 19.3 64 17.9 92 92 SSE 9 15 30.11 1020 10 16 0.00 0.00
1:15 am 01:15 Cloudy 67 19.4 65 18.1 92 92 S 9 15 30.10 1019 10 16 0.00 0.00
1:35 am 01:35 Cloudy 66 18.7 64 17.6 93 93 S 8 13 30.10 1019 10 16 0.00 0.00
1:55 am 01:55 Cloudy with Nearby Thunderstorms 66 18.9 64 17.8 93 93 SSE 9 15 30.10 1019 10 16 0.00 0.00
2:15 am 02:15 Cloudy 66 19.1 64 18 93 93 S 5 7 30.11 1020 10 16 0.00 0.00
2:35 am 02:35 Cloudy 67 19.3 65 18.2 93 93 SSE 5 7 30.10 1019 10 16 0.00 0.00
2:55 am 02:55 Cloudy with Nearby Thunderstorms 67 19.7 65 18.6 93 93 SSE 8 13 30.10 1019 10 16 0.00 0.00
3:15 am 03:15 Cloudy 67 19.6 65 18.5 93 93 SSE 8 13 30.08 1019 10 16 0.00 0.00
3:35 am 03:35 Cloudy 68 19.9 66 18.8 93 93 S 7 11 30.09 1019 7 11 0.00 0.00
3:55 am 03:55 Cloudy 69 20.8 68 19.8 94 94 S 9 15 30.09 1019 7 11 0.00 0.00
4:15 am 04:15 Cloudy 70 21.3 68 19.9 92 92 S 13 20 30.10 1019 7 11 0.00 0.00
4:35 am 04:35 Cloudy 70 21.2 68 19.9 92 92 S 10 17 30.11 1020 7 11 0.00 0.00
4:55 am 04:55 Cloudy with Nearby Thunderstorms 70 20.9 67 19.7 93 93 S 12 19 30.10 1019 7 11 0.00 0.00
5:15 am 05:15 Cloudy 70 20.9 68 19.8 93 93 S 12 19 30.10 1019 7 11 0.00 0.00
5:35 am 05:35 Cloudy 70 21.1 68 19.8 92 92 S 10 17 30.11 1020 7 11 0.00 0.00
6:00 am 06:00 Cloudy with Mist and Fog 70 21 68 20 94 94 S 12 19 30.12 1020 6 10 0.00 0.00
6:45 am 06:45 Mostly Cloudy with Mist and Fog 70 21 66 19 88 88 S 6 9 30.14 1021 6 10 0.00 0.00
7:50 am 07:50 Mostly Cloudy with Mist and Fog 70 21 68 20 94 94 SW 7 11 30.16 1021 5 8 0.00 0.00
8:48 am 08:48 Mostly Cloudy with Mist and Fog 72 22 68 20 88 88 SW 5 7 30.19 1022 5 8 0.00 0.00
9:45 am 09:45 Mostly Cloudy 73 23 70 21 89 89 SSW 7 11 30.20 1023 10 16 0.00 0.00
10:55 am 10:55 Mostly Cloudy 77 25 70 21 79 79 SW 17 28 30.19 1022 10 16 0.00 0.00
11:52 am 11:52 Mostly Cloudy 77 25 70 21 79 79 SW 14 22 30.17 1022 10 16 0.00 0.00
12:51 pm 12:51 Mostly Cloudy 75 24 70 21 83 83 SW 12 19 30.15 1021 7 11 0.00 0.00
1:33 pm 13:33 Mostly Cloudy with Thunderstorms 75 24 68 20 78 78 SW 17 28 30.15 1021 3 5 0.00 0.00
1:55 pm 13:55 Mostly Cloudy with Thunderstorms 70 21 64 18 83 83 SW 12 19 30.14 1021 4 6 0.00 0.00
3:50 pm 15:50 Mostly Cloudy 72 22 66 19 83 83 SW 8 13 30.16 1021 10 16 0.00 0.00
4:50 pm 16:50 Mostly Cloudy 72 22 68 20 88 88 S 3 6 30.17 1022 10 16 0.00 0.00
5:55 pm 17:55 Mostly Cloudy 72 22 68 20 88 88 S 3 6 30.17 1022 10 16 0.00 0.00
6:50 pm 18:50 Mostly Cloudy 70 21 66 19 88 88 Calm 30.21 1023 10 16 0.00 0.00
7:53 pm 19:53 Mostly Clear 68 20 66 19 94 94 Calm 30.23 1024 10 16 0.00 0.00
8:50 pm 20:50 Mostly Clear 70 21 64 18 83 83 NNW 13 20 30.25 1024 10 16 0.00 0.00
9:55 pm 21:55 Mostly Cloudy 68 20 63 17 83 83 NNE 14 22 30.27 1025 10 16 0.00 0.00
10:15 pm 22:15 Cloudy 66 18.8 60 15.5 81 81 NE 14 22 30.28 1025 10 16 0.00 0.00
10:35 pm 22:35 Cloudy 63 17.4 58 14.2 82 82 NE 18 30 30.29 1026 10 16 0.00 0.00
10:55 pm 22:55 Cloudy 62 16.6 56 13.4 82 82 NE 14 22 30.32 1027 10 16 0.00 0.00
11:15 pm 23:15 Cloudy 61 16 55 13 83 83 NE 9 15 30.32 1027 10 16 0.00 0.00
11:35 pm 23:35 Cloudy 59 15.2 53 11.5 79 79 NNE 18 30 30.33 1027 10 16 0.00 0.00
11:55 pm 23:55 Cloudy 58 14.5 51 10.6 78 78 NNE 20 31 30.34 1027 10 16 0.00 0.00

Powered by AerisWeather